THY2426 LTFM-LTAI

Flight info

Callsign THY2426
Flight time N/A
Altitude 39000
Route RATVU UT35 BABSA
Aircraft A332/H-SDE3GHIJ2J3J5M1RVWXY/LB2D1

Departure

Time 2026-02-17 14:50
Airport İstanbul Airport (LTFM)

Arrival

Time N/A
Airport Antalya International Airport (LTAI)
Time Latitude Longitude Altitude Speed Heading
2026-02-17 14:23 41.26566 28.75007 317 ft 0 kts 287°
2026-02-17 14:40 41.26566 28.75008 317 ft 1 kts 287°
2026-02-17 14:41 41.26561 28.75027 316 ft 3 kts 294°
2026-02-17 14:41 41.26552 28.75051 315 ft 3 kts 304°
2026-02-17 14:41 41.26540 28.75072 315 ft 3 kts 319°
2026-02-17 14:41 41.26524 28.75086 315 ft 3 kts 343°
2026-02-17 14:42 41.26509 28.75089 315 ft 1 kts 16°
2026-02-17 14:42 41.26507 28.75089 315 ft 0 kts 17°
2026-02-17 14:43 41.26508 28.75089 315 ft 1 kts 17°
2026-02-17 14:44 41.26544 28.75104 316 ft 8 kts 17°
2026-02-17 14:44 41.26612 28.75164 317 ft 15 kts 65°
2026-02-17 14:44 41.26625 28.75324 315 ft 17 kts 74°
2026-02-17 14:44 41.26724 28.75374 316 ft 18 kts 359°
2026-02-17 14:45 41.26883 28.75372 315 ft 26 kts
2026-02-17 14:45 41.27067 28.75369 310 ft 28 kts 359°
2026-02-17 14:45 41.27270 28.75367 309 ft 30 kts 359°
2026-02-17 14:45 41.27488 28.75363 303 ft 33 kts 359°
2026-02-17 14:46 41.27731 28.75361 292 ft 33 kts 359°
2026-02-17 14:46 41.27918 28.75357 277 ft 28 kts 359°
2026-02-17 14:46 41.28134 28.75354 266 ft 33 kts 359°
2026-02-17 14:47 41.28621 28.75347 248 ft 36 kts 359°
2026-02-17 14:47 41.28859 28.75345 237 ft 28 kts 360°
2026-02-17 14:47 41.28970 28.75397 238 ft 16 kts 71°
2026-02-17 14:47 41.28976 28.75550 233 ft 16 kts 89°
2026-02-17 14:48 41.28948 28.75625 236 ft 8 kts 162°
2026-02-17 14:48 41.28923 28.75629 236 ft 0 kts 179°
2026-02-17 14:49 41.28873 28.75630 238 ft 28 kts 179°
2026-02-17 14:49 41.28460 28.75635 256 ft 88 kts 179°
2026-02-17 14:49 41.27670 28.75645 299 ft 136 kts 179°
2026-02-17 14:49 41.26684 28.75649 778 ft 145 kts 179°
2026-02-17 14:50 41.25705 28.75776 1547 ft 140 kts 172°
2026-02-17 14:50 41.24761 28.76050 2273 ft 142 kts 173°
2026-02-17 14:50 41.23711 28.76322 2541 ft 166 kts 173°
2026-02-17 14:51 41.21079 28.76869 3146 ft 220 kts 175°
2026-02-17 14:51 41.19498 28.77154 3867 ft 233 kts 175°
2026-02-17 14:51 41.17887 28.77436 4912 ft 235 kts 175°
2026-02-17 14:51 41.16233 28.77715 5854 ft 240 kts 176°
2026-02-17 14:52 41.14593 28.77987 6853 ft 241 kts 176°
2026-02-17 14:52 41.12908 28.78265 7813 ft 246 kts 176°
2026-02-17 14:52 41.11187 28.78549 8800 ft 251 kts 176°
2026-02-17 14:52 41.09430 28.78838 9728 ft 257 kts 176°
2026-02-17 14:53 41.07589 28.79138 10198 ft 279 kts 176°
2026-02-17 14:53 41.06271 28.79350 10416 ft 295 kts 176°
2026-02-17 14:53 41.04153 28.79694 10744 ft 317 kts 175°
2026-02-17 14:53 41.01186 28.80182 11659 ft 327 kts 175°
2026-02-17 14:54 40.98909 28.80558 12505 ft 330 kts 175°
2026-02-17 14:54 40.97389 28.80817 13062 ft 333 kts 174°
2026-02-17 14:54 40.95085 28.81388 13797 ft 339 kts 171°